Other Public Products
Issued by NWS Grand Forks, ND

Home | Current Version | Previous Version | Text Only | Print | Product List | Glossary Off
Versions: 1 2 3 4 5 6 7 8 9 10 11 12 13 14 15 16 17 18 19 20 21 22 23 24 25 26 27 28 29 30 31 32 33 34 35 36 37 38 39 40 41 42 43 44 45 46 47 48 49 50

000
FPUS83 KFGF 260810
OPUFGF
PRAIRIE TO PINES WEATHER ROUNDUP
NATIONAL WEATHER SERVICE EASTERN NORTH DAKOTA/GRAND FORKS ND
200 AM CST SUN FEB 26 2017

 **SATELLITE DATA USED TO AUGMENT SKY COVER AT AUTOMATED STATIONS**
 *****  WEATHER ACROSS EASTERN NORTH DAKOTA  *****

CITY           SKY/WX    TMP DP  RH WIND       PRES   REMARKS
GRAND FORKS    LGT SNOW  14   7  73 N15       29.74R WCI  -1
GRAND FORKS AF FLURRIES  13  10  85 N8        29.73S WCI   2
GRAND CITY NWS NOT AVBL
BUXTON         NOT AVBL
DEVILS LAKE    CLOUDY     9   6  88 N6        29.72R WCI  -1
FARGO          CLOUDY    23  20  88 N6        29.68S WCI  16
WAHPETON ARPT    N/A     12   9  85 CALM      29.70S VSB<1/4
$$

 *****  WEATHER ACROSS CENTRAL AND WESTERN NORTH DAKOTA  *****

CITY           SKY/WX    TMP DP  RH WIND       PRES   REMARKS
JAMESTOWN      MOCLDY    22  19  89 NW10      29.64S WCI  11
BISMARCK       FAIR      17  12  80 NW9       29.72R WCI   6
MINOT          FAIR       2  -1  88 W5        29.72R WCI  -8
MINOT AFB      PTCLDY    -2  -6  84 NW6       29.72R WCI -14
GARRISON         N/A      6   3  87 NW7       29.71R WCI  -6
WILLISTON      CLOUDY     5   2  87 NE3       29.72F FOG
DICKINSON      FLURRIES  15  12  88 E6        29.65R WCI   6
HETTINGER      FAIR      12   9  87 NW6       29.67S WCI   3
$$

 *****  OTHER OBSERVATIONS NORTHEAST NORTH DAKOTA  *****

CITY           SKY/WX    TMP DP  RH WIND       PRES   REMARKS
WALHALLA       NOT AVBL
LANGDON        NOT AVBL
CAVALIER         N/A     10   7  85 NW3       29.75R
GRAFTON        FAIR      12   9  85 N7        29.77R WCI   2
CANDO          NOT AVBL
FORT TOTTEN      N/A     10   9  95 NE3       29.95S
ROLLA          FAIR       1   0  92 NW3       29.69F
RUGBY            N/A      1   1 100 NW5       29.72S WCI  -8
 ***** THE ABOVE OBSERVATIONS ARE NON NWS ARE NOT QUALITY
        CONTROLLED AND MAY MIS-REPORT RAIN FOR SNOW...
$$

 *****  OTHER OBSERVATIONS SOUTHEAST NORTH DAKOTA *****

CITY           SKY/WX    TMP DP  RH WIND       PRES   REMARKS
COOPERSTOWN    LGT SNOW  14  12  92 NE15      29.67F WCI  -1
VALLEY CITY    CLOUDY    23  23 100 SW9       29.66S WCI  13
OAKES          NOT AVBL
GWINNER        PTSUNNY   28  27  93 SW16      29.66F WCI  17
SHEYENNE NWR     N/A     20  18  91 S3        29.95S
BUFFALO        NOT AVBL
WYNDMERE       NOT AVBL
 ***** THE ABOVE OBSERVATIONS ARE NON NWS ARE NOT QUALITY
       CONTROLLED AND MAY MIS-REPORT RAIN FOR SNOW...
$$

  *****  WEATHER ACROSS NORTHERN MINNESOTA  *****

CITY           SKY/WX    TMP DP  RH WIND       PRES   REMARKS
FLAG ISLAND    FAIR       9   1  72 NW10      29.68S WCI  -6
WARROAD        FAIR      10   5  79 NW6       29.70R WCI   1
ROSEAU         FLURRIES  12   9  85 NW5       29.71R WCI   4
HALLOCK        MOCLDY    12   7  79 NW6       29.74R WCI   3
THF RVR FALLS  LGT SNOW  13  10  88 N7        29.72S FOG     WCI   3
HALSTAD          N/A     17  14  88 N17         N/A  WCI   1
FOSSTON        CLOUDY    16  12  86 N9        29.67S WCI   4
BAUDETTE       CLOUDY    12   7  80 NW10      29.67R WCI  -1
WASKISH        LGT SNOW  12  10  92 W3        29.68S
CROOKSTON      LGT SNOW  14  12  92 N13       29.74S WCI   0
$$
  *****  WEATHER ACROSS CENTRAL AND WEST MINNESOTA  *****

CITY           SKY/WX    TMP DP  RH WIND       PRES   REMARKS
BEMIDJI        CLOUDY    17  15  93 N3        29.65S
PARK RAPIDS    MOCLDY    21  16  81 S3        29.64S HAZE
WADENA         FOG       19  19 100 CALM      29.66F VSB 3/4
DETROIT LAKES  FAIR      21  21 100 SW3       29.66F
MOORHEAD       MOCLDY    25  21  86 S3        29.68F
FERGUS FALLS   FOG       18  18 100 CALM      29.73F VSB<1/4
ELBOW LAKE     SNOW      22  22  99 CALM      29.69F VSB 1/4
MORRIS MN      FAIR      27  25  93 CALM      29.68F
STAPLES        FOG       14  12  92 CALM      29.67S VSB 1/4
WHEATON        CLOUDY    23  21  93 S3        29.72S FOG
$$
  *****  WEATHER ELSEWHERE ACROSS MINNESOTA  *****

CITY           SKY/WX    TMP DP  RH WIND       PRES   REMARKS
DULUTH         LGT SNOW  26  23  88 SW9       29.64F VSB 1   WCI  17
INTRNTL FALLS  CLOUDY    13   7  77 W5        29.66S WCI   5
ELY            FLURRIES  19  18  93 CALM      29.64S
CLOQUET        LGT SNOW  25  23  93 SW6       29.65F WCI  18
BRAINERD       CLOUDY    24  23  96 W3        29.67S
HIBBING        LGT SNOW  21  20  96 W3        29.64F FOG
ALEXANDRIA     CLOUDY    27  24  89 W5        29.67F WCI  22
SAINT CLOUD    CLOUDY    26  21  81 SW12      29.71F WCI  16
MINNEAPOLIS    MOCLDY    25  15  66 SW10      29.77F WCI  15
$$

  *****  WEATHER ACROSS SOUTH DAKOTA  *****

CITY           SKY/WX    TMP DP  RH WIND       PRES   REMARKS
SIOUX FALLS    FAIR      19  16  88 SW6       29.76S WCI  11
BROOKINGS      FAIR      20  17  88 S9        29.71F WCI   9
WATERTOWN      FOG       23  22  96 SW9       29.68F VSB 1/2 WCI  13
HURON          FAIR      23  22  96 S5        29.72F WCI  17
SISSETON         N/A     24  23  96 SW3       29.68F
ABERDEEN       CLOUDY    24  21  88 SW6       29.71S WCI  17
MITCHELL       MOCLDY    27  21  78 SW9       29.76S WCI  18
PIERRE         FAIR      25  21  85 W9        29.72S WCI  15
MOBRIDGE       FAIR      25  19  78 NW8       29.67R WCI  16
RAPID CITY     FAIR      16   9  74 NW8       29.72R WCI   5
$$

  *****  SOME WEATHER IN NEARBY STATES *****

CITY           SKY/WX    TMP DP  RH WIND       PRES   REMARKS
GLASGOW MT     CLOUDY    18  14  84 E9        29.64F WCI   7
GREAT FALLS MT CLOUDY    28  10  46 W14       29.68R WCI  17
CHEYENNE WY    FAIR      11  -1  58 W8        29.76R WCI  -1
SCOTTSBLUFF NE FAIR       8   2  76 NW8       29.81R WCI  -4
OMAHA NE       MOCLDY    34  23  64 SW9       29.86F
DES MOINES IA  CLOUDY    32  17  54 SW12      29.89F WCI  23
DAVENPORT IA   CLOUDY    26  18  71 S8        30.01F WCI  18
CHICAGO IL     FAIR      24  16  71 SW5       30.04S WCI  18
EAU CLAIRE WI  CLOUDY    21  15  78 S7        29.81F WCI  12
LA CROSSE WI   CLOUDY    27  18  69 S10       29.88F WCI  17
$$

  *****  SOME NATIONAL WEATHER *****

CITY           SKY/WX    TMP DP  RH WIND       PRES   REMARKS
LA GUARDIA NY  MOCLDY    44  30  57 NW16G25   29.74R
RALEIGH NC     FAIR      44  16  32 VRB6      29.97R
ATLANTA GA     FAIR      39  22  50 NW7       30.08S
NEW ORLEANS LA FAIR      55  36  48 NE8       30.10F
OKLAHOMA CITY  MOCLDY    36  20  52 SE12      29.97F
ALBUQUERQUE NM MOCLDY    40   6  24 W5        29.88F
SALT LAKE CITY FAIR      24  15  68 SE6       29.98F WCI  17
LOS ANGELES CA FAIR      52  43  71 W12       30.01F
BOISE ID       MOCLDY    32  17  54 SE9       29.95F WCI  24
SEATTLE WA     NOT AVBL
$$

*** WEATHER ACROSS MANITOBA...SASKATCHEWAN AND ONTARIO ***
                ***ONTARIO***

CITY           SKY/WX    TMP DP  RH WIND       PRES   REMARKS
GERALDTON      CLEAR     -4  -8  84 CALM      29.63S
THUNDER BAY    CLEAR      9   7  92 W2        29.69S
SIOUX LOOKOUT  FLURRIES  10   5  79 VRB2      29.58S
TORONTO        PTCLDY    25  12  58 W15       29.87R WCI  12
BIG TROUT LK   CLEAR     -6  -9  84 W7        29.57S WCI -20
PICKLE LAKE    NOT AVBL
DRYDEN         LGT SNOW  14  12  92 W7        29.58  WCI   4
KENORA         FLURRIES   7   3  85 W5        29.64S WCI  -2
$$
                *** MANITOBA***

CITY           SKY/WX    TMP DP  RH WIND       PRES   REMARKS
BRANDON        CLEAR     -2  -8  78 W8        29.72S WCI -17
DAUPHIN        CLEAR      1  -2  85 W8        29.74R WCI -12
ISLAND LAKE    CRYSTALS  -6 -11  77 W2        29.64R
PILOT MOUND      N/A      3  -2  78 NW9         N/A  WCI -11
THE PAS        CLEAR     -2  -8  78 SE2       29.66F
THOMPSON       PTCLDY   -13 -17  84 NW3       29.66S
WINNIPEG       FLURRIES  10   7  85 NW5       29.75R WCI   2
LYNN LAKE      FLURRIES -18 -20  91 N2        29.63S
CHURCHILL      CRYSTALS -22 -27  76 W8        29.68F WCI -41
GILLAM         FLURRIES -17 -22  76 NW3       29.63S
$$
                ***SASKATCHEWAN***

CITY           SKY/WX    TMP DP  RH WIND       PRES   REMARKS
ESTEVAN        CRYSTALS  -2  -4  92 SW7       29.71R WCI -16
KINDERSLEY     FLURRIES  18  14  86 N10       29.63R WCI   6
LLOYDMINSTER   CLOUDY    14   9  79 N8        29.66R WCI   3
PRINCE ALBERT  CLEAR      0  -6  78 CALM      29.64S
REGINA         PTCLDY     5   3  92 S9        29.67S WCI  -9
YORKTON        PTCLDY     0  -4  85 S3        29.67R


USA.gov is the U.S. government's official web portal to all federal, state and local government web resources and services.